GW3691 Weather Reports


Display with metric or nautical units.
time (UTC)temp
F
wind
direction
speed
MPH
gust
MPH
rain 1hr
in
rain 24hr
in
rain mn
in
humidity
%
barometer
mb
20260905184527 82 192 2.0 2.0 0.05 0.20 0.20 90 1017.3
20260905184026 82 166 0.0 0.0 0.00 0.19 0.19 90 1017.0
20260905183525 82 174 0.0 1.0 0.00 0.19 0.19 90 1017.2
20260905183021 82 162 0.0 0.0 0.00 0.19 0.19 91 1017.1
20260905182515 81 160 0.0 0.0 0.00 0.19 0.19 91 1016.8
20260905182009 81 161 0.0 0.0 0.00 0.19 0.19 91 1016.7
20260905181504 81 148 0.0 0.0 0.00 0.19 0.19 92 1017.0
20260905181003 82 157 0.0 0.0 0.00 0.19 0.19 91 1016.6
20260905180458 81 153 0.0 0.0 0.00 0.19 0.19 91 1016.8
20260905175953 81 146 0.0 0.0 0.00 0.19 0.19 91 1017.0
20260905175453 81 151 1.0 2.0 0.00 0.19 0.19 91 1017.2
20260905174949 81 161 0.0 0.0 0.00 0.19 0.19 91 1017.0
20260905174443 81 169 0.0 0.0 0.00 0.19 0.19 91 1017.0
20260905173939 80 150 0.0 0.0 0.97 0.19 0.19 90 1017.0
20260905173436 80 158 0.0 1.0 1.02 0.18 0.18 89 1017.2
20260905172931 84 146 5.0 6.0 0.17 0.04 0.04 84 1017.4
20260905172428 88 26 5.0 7.0 0.00 0.01 0.01 74 1017.2
20260905171925 93 235 6.0 8.0 0.00 0.01 0.01 71 1017.2
20260905171421 94 177 0.0 1.0 0.00 0.01 0.01 69 1016.9
20260905170917 95 151 0.0 0.0 0.00 0.01 0.01 68 1016.9
20260905170413 92 176 1.0 1.0 0.00 0.01 0.01 70 1017.1
20260905165912 91 191 0.0 1.0 0.00 0.01 0.01 72 1017.5
20260905165408 91 166 1.0 2.0 0.00 0.01 0.01 71 1017.4
20260905164903 91 179 0.0 1.0 0.00 0.01 0.01 73 1017.4
20260905164357 91 181 0.0 0.0 0.00 0.01 0.01 71 1017.6
20260905163852 91 156 0.0 0.0 0.00 0.01 0.01 72 1017.8
20260905163349 90 234 1.0 2.0 0.00 0.01 0.01 73 1017.6
20260905162845 90 181 1.0 1.0 0.00 0.01 0.01 72 1017.9
20260905162344 89 197 1.0 2.0 0.00 0.01 0.01 73 1017.9
20260905161839 90 265 3.0 3.0 0.00 0.01 0.01 74 1018.0
20260905161338 90 188 3.0 3.0 0.00 0.01 0.01 72 1018.0
20260905160837 90 241 2.0 2.0 0.00 0.01 0.01 73 1018.1
20260905160331 89 181 3.0 3.0 0.00 0.01 0.01 74 1018.0
20260905155825 88 254 3.0 3.0 0.00 0.01 0.01 75 1018.0
20260905155325 88 209 1.0 2.0 0.00 0.01 0.01 78 1018.4
20260905154819 88 165 0.0 0.0 0.00 0.01 0.01 78 1018.3
20260905154315 89 178 1.0 1.0 0.00 0.01 0.01 77 1018.4
20260905153810 89 340 3.0 3.0 0.00 0.01 0.01 78 1018.3
20260905153306 88 164 1.0 1.0 0.00 0.01 0.01 78 1018.5
20260905152800 88 163 1.0 1.0 0.00 0.01 0.01 78 1018.5
20260905152259 88 184 2.0 2.0 0.00 0.01 0.01 79 1018.5
20260905151754 87 172 1.0 1.0 0.00 0.01 0.01 80 1018.3
20260905151250 87 173 1.0 2.0 0.00 0.01 0.01 81 1018.3
20260905150749 86 181 1.0 2.0 0.00 0.01 0.01 81 1018.5
20260905150244 86 246 3.0 6.0 0.00 0.01 0.01 83 1018.3
20260905145741 85 192 4.0 6.0 0.00 0.01 0.01 84 1018.8
20260905145236 85 192 1.0 1.0 0.00 0.01 0.01 85 1018.6
20260905144735 84 170 1.0 1.0 0.07 0.01 0.01 87 1018.7
20260905144231 83 170 1.0 1.0 0.07 0.01 0.01 87 1018.7
20260905143730 83 184 1.0 1.0 0.00 0.00 0.00 87 1018.8
20260905143229 83 171 0.0 0.0 0.00 0.00 0.00 87 1018.7
20260905142727 83 172 0.0 0.0 0.00 0.00 0.00 87 1019.0
20260905142222 83 167 0.0 0.0 0.00 0.00 0.00 87 1019.1
20260905141718 83 166 0.0 0.0 0.00 0.00 0.00 87 1019.0
20260905141214 82 164 0.0 0.0 0.00 0.00 0.00 88 1018.9
20260905140708 82 172 0.0 0.0 0.00 0.00 0.00 88 1018.8
20260905140203 82 167 0.0 0.0 0.00 0.00 0.00 88 1018.9
20260905135657 82 185 0.0 1.0 0.00 0.00 0.00 88 1019.0
20260905135153 82 163 0.0 0.0 0.00 0.00 0.00 89 1018.8
20260905134647 81 166 0.0 0.0 0.00 0.00 0.00 90 1018.7
20260905134146 81 219 1.0 1.0 0.00 0.00 0.00 91 1018.5
20260905133642 80 167 1.0 1.0 0.00 0.00 0.00 91 1018.6
20260905133142 80 167 0.0 0.0 0.00 0.00 0.00 92 1018.5
20260905132641 80 168 0.0 0.0 0.00 0.00 0.00 93 1018.5
20260905132136 80 170 1.0 2.0 0.00 0.00 0.00 93 1018.4
20260905131631 79 162 0.0 0.0 0.00 0.00 0.00 94 1018.6
20260905131126 79 149 0.0 0.0 0.00 0.00 0.00 94 1018.1
20260905130621 79 191 1.0 1.0 0.00 0.00 0.00 94 1018.2
20260905130120 79 171 1.0 1.0 0.00 0.00 0.00 94 1018.3
20260905125615 78 178 1.0 1.0 0.00 0.00 0.00 95 1018.4
20260905125110 78 169 0.0 1.0 0.00 0.00 0.00 95 1018.3
20260905124602 78 165 1.0 1.0 0.00 0.00 0.00 95 1018.4
20260905124057 78 169 0.0 1.0 0.00 0.00 0.00 95 1018.1
20260905123552 78 164 1.0 1.0 0.00 0.00 0.00 95 1018.2
20260905123049 78 175 1.0 2.0 0.00 0.00 0.00 95 1018.4
20260905122549 78 170 0.0 1.0 0.00 0.00 0.00 95 1018.6
20260905122043 77 177 0.0 0.0 0.00 0.00 0.00 95 1018.2
20260905121538 77 176 0.0 0.0 0.00 0.00 0.00 95 1018.2
20260905121033 77 169 0.0 0.0 0.00 0.00 0.00 95 1018.2
20260905120532 77 169 0.0 0.0 0.00 0.00 0.00 95 1018.2
20260905120028 77 165 0.0 0.0 0.00 0.00 0.00 95 1018.1
20260905115526 77 167 0.0 0.0 0.00 0.00 0.00 95 1018.0
20260905115022 77 169 0.0 0.0 0.00 0.00 0.00 95 1018.1
20260905114521 77 164 0.0 0.0 0.00 0.00 0.00 95 1017.8
20260905114020 77 167 0.0 0.0 0.00 0.00 0.00 95 1017.6
20260905113515 77 167 0.0 0.0 0.00 0.00 0.00 95 1017.6
20260905113010 76 168 0.0 0.0 0.00 0.00 0.00 95 1017.7
20260905112506 76 165 0.0 0.0 0.00 0.00 0.00 95 1017.6
20260905112001 76 163 0.0 0.0 0.00 0.00 0.00 95 1017.7
20260905111455 76 163 0.0 0.0 0.00 0.00 0.00 95 1017.8
20260905110950 76 162 0.0 0.0 0.00 0.00 0.00 95 1017.4
20260905110449 76 163 0.0 0.0 0.00 0.00 0.00 95 1017.7
20260905105948 76 159 0.0 0.0 0.00 0.00 0.00 95 1017.3
20260905105443 76 161 0.0 0.0 0.00 0.00 0.00 95 1017.5
20260905104942 76 165 0.0 0.0 0.00 0.00 0.00 95 1017.3
20260905104438 76 166 0.0 0.0 0.00 0.00 0.00 95 1017.2
20260905103933 76 172 0.0 0.0 0.00 0.00 0.00 95 1017.4
20260905103429 76 168 0.0 0.0 0.00 0.00 0.00 95 1017.4
20260905102924 76 163 0.0 0.0 0.00 0.00 0.00 95 1017.2
20260905102421 76 167 0.0 0.0 0.00 0.00 0.00 95 1017.4
20260905101916 76 161 0.0 0.0 0.00 0.00 0.00 95 1017.4
20260905101414 76 160 0.0 0.0 0.00 0.00 0.00 95 1017.4
20260905100909 76 161 0.0 0.0 0.00 0.00 0.00 95 1017.1
20260905100405 76 161 0.0 0.0 0.00 0.00 0.00 95 1017.3
20260905095904 76 161 0.0 0.0 0.00 0.00 0.00 95 1017.3
20260905095358 76 161 0.0 0.0 0.00 0.00 0.00 95 1017.3
20260905094853 76 157 0.0 0.0 0.00 0.00 0.00 95 1017.1
20260905094349 76 169 0.0 0.0 0.00 0.00 0.00 95 1017.1
20260905093847 76 160 0.0 0.0 0.00 0.00 0.00 95 1016.6
20260905093343 76 157 0.0 0.0 0.00 0.00 0.00 95 1016.8
20260905092839 76 157 0.0 0.0 0.00 0.00 0.00 95 1017.2
20260905092339 76 157 0.0 0.0 0.00 0.00 0.00 95 1017.3
20260905091834 76 157 0.0 0.0 0.00 0.00 0.00 95 1017.0
20260905091333 76 157 0.0 0.0 0.00 0.00 0.00 95 1017.3
20260905090832 76 156 0.0 0.0 0.00 0.00 0.00 95 1017.1
20260905090329 76 158 0.0 0.0 0.00 0.00 0.00 95 1017.3
20260905085828 76 156 0.0 0.0 0.00 0.00 0.00 95 1017.3
20260905085322 76 156 0.0 0.0 0.00 0.00 0.00 95 1017.3
20260905084818 76 156 0.0 0.0 0.00 0.00 0.00 95 1017.2
20260905084317 76 156 0.0 0.0 0.00 0.00 0.00 95 1017.3
20260905083812 76 157 0.0 0.0 0.00 0.00 0.00 95 1017.3
20260905083308 76 155 0.0 0.0 0.00 0.00 0.00 95 1017.3
20260905082803 76 155 0.0 0.0 0.00 0.00 0.00 95 1017.2
20260905082259 76 155 0.0 0.0 0.00 0.00 0.00 95 1017.2
20260905081754 76 155 0.0 0.0 0.00 0.00 0.00 95 1017.5
20260905081249 76 155 0.0 0.0 0.00 0.00 0.00 95 1017.1
20260905080748 76 155 0.0 0.0 0.00 0.00 0.00 95 1017.3
20260905080243 76 155 0.0 0.0 0.00 0.00 0.00 95 1017.2
20260905075742 76 154 0.0 0.0 0.00 0.00 0.00 95 1017.2
20260905075241 76 154 0.0 0.0 0.00 0.00 0.00 95 1017.2
20260905074740 76 154 0.0 0.0 0.00 0.00 0.00 95 1017.2
20260905074236 76 154 0.0 0.0 0.00 0.00 0.00 95 1017.2
20260905073732 76 154 0.0 0.0 0.00 0.00 0.00 95 1017.2
20260905073227 76 153 0.0 0.0 0.00 0.00 0.00 95 1017.2
20260905072726 76 157 0.0 0.0 0.00 0.00 0.00 95 1017.0
20260905072222 76 156 0.0 0.0 0.00 0.00 0.00 95 1017.2
20260905071718 76 156 0.0 0.0 0.00 0.00 0.00 95 1017.3
20260905071214 76 156 0.0 0.0 0.00 0.00 0.00 95 1017.3
20260905070709 76 158 0.0 0.0 0.00 0.00 0.00 95 1017.6
20260905070205 76 157 0.0 0.0 0.00 0.00 0.00 95 1017.5
20260905065703 76 157 0.0 0.0 0.00 0.00 0.00 95 1017.4
20260905065158 76 157 0.0 0.0 0.00 0.00 0.00 95 1017.5
20260905064653 76 158 0.0 0.0 0.00 0.00 0.00 95 1017.3
20260905064149 76 155 0.0 0.0 0.00 0.00 0.00 95 1017.4
20260905063647 76 155 0.0 0.0 0.00 0.00 0.00 95 1017.2
20260905063144 76 160 0.0 0.0 0.00 0.00 0.00 95 1017.6
20260905062639 76 176 0.0 0.0 0.00 0.00 0.00 95 1017.7
20260905062138 76 160 0.0 0.0 0.00 0.00 0.00 95 1017.7
20260905061632 76 157 0.0 0.0 0.00 0.00 0.00 95 1017.7
20260905061127 76 160 0.0 0.0 0.00 0.00 0.00 95 1017.9
20260905060622 76 161 0.0 0.0 0.00 0.00 0.00 95 1018.1
20260905060119 76 156 0.0 1.0 0.00 0.00 0.00 95 1017.9
20260905055617 76 160 0.0 0.0 0.00 0.00 0.00 95 1017.8
20260905055112 76 162 0.0 0.0 0.00 0.00 0.00 95 1018.1
20260905054608 76 156 0.0 0.0 0.00 0.00 0.00 95 1018.1
20260905054103 76 158 1.0 2.0 0.00 0.00 0.00 95 1018.3
20260905053603 76 161 0.0 0.0 0.00 0.00 0.00 96 1018.4
20260905053058 76 168 0.0 0.0 0.00 0.00 0.00 96 1018.6
20260905052557 76 167 0.0 0.0 0.00 0.00 0.00 95 1018.5
20260905052052 76 167 0.0 0.0 0.00 0.00 0.00 96 1018.3
20260905051548 76 167 0.0 0.0 0.00 0.00 0.00 95 1018.4
20260905051044 76 166 0.0 0.0 0.00 0.00 0.00 95 1018.4
20260905050540 76 166 0.0 0.0 0.00 0.00 0.00 96 1018.5
20260905050037 76 165 0.0 0.0 0.00 0.00 0.00 96 1018.7
20260905045531 76 165 0.0 0.0 0.00 0.00 0.00 95 1018.6
20260905045026 76 164 0.0 0.0 0.00 0.00 0.00 95 1018.8
20260905044520 76 158 0.0 0.0 0.00 0.00 0.00 96 1018.6
20260905044015 76 161 0.0 0.0 0.00 0.00 0.00 95 1018.8
20260905043514 76 157 0.0 0.0 0.00 0.00 0.00 95 1018.8
20260905043009 76 160 0.0 0.0 0.00 0.00 0.00 95 1018.6
20260905042503 76 160 0.0 0.0 0.00 0.00 0.00 95 1018.9
20260905041958 76 157 0.0 0.0 0.00 0.00 0.00 95 1018.9
20260905041454 76 157 0.0 0.0 0.00 0.00 0.00 95 1019.1
20260905040949 76 159 0.0 0.0 0.00 0.00 0.00 95 1019.1
20260905040448 76 166 0.0 0.0 0.00 0.00 0.00 95 1018.9
20260905035947 76 163 0.0 0.0 0.00 0.69 0.69 95 1019.0
20260905035443 76 163 0.0 0.0 0.00 0.69 0.69 95 1019.2
20260905034940 76 163 0.0 0.0 0.00 0.69 0.69 95 1019.2
20260905034435 76 164 0.0 0.0 0.00 0.69 0.69 95 1018.8
20260905033934 76 164 0.0 0.0 0.00 0.69 0.69 96 1019.1
20260905033429 76 162 0.0 0.0 0.05 0.69 0.69 96 1018.8
20260905032928 76 162 0.0 0.0 0.05 0.69 0.69 96 1018.9
20260905032424 76 162 0.0 0.0 0.00 0.68 0.68 96 1018.9
20260905031919 76 163 0.0 0.0 0.00 0.68 0.68 96 1019.2
20260905031415 76 163 0.0 0.0 0.00 0.68 0.68 96 1019.2
20260905030910 76 168 0.0 1.0 0.00 0.68 0.68 96 1018.8
20260905030405 76 164 0.0 0.0 0.00 0.68 0.68 96 1019.2
20260905025904 76 163 0.0 0.0 0.00 0.68 0.68 96 1019.3
20260905025354 76 162 0.0 0.0 0.00 0.68 0.68 96 1019.0
20260905024850 76 162 0.0 0.0 0.07 0.68 0.68 96 1019.0
20260905024345 76 163 0.0 0.0 0.07 0.68 0.68 96 1019.1
20260905023840 76 163 0.0 0.0 0.00 0.67 0.67 96 1019.0
20260905023336 76 163 0.0 0.0 0.00 0.67 0.67 96 1019.3
20260905022834 76 164 0.0 0.0 0.00 0.67 0.67 96 1019.4
20260905022330 76 166 0.0 0.0 0.05 0.67 0.67 95 1019.3
20260905021824 76 158 0.0 0.0 0.05 0.67 0.67 95 1019.4
20260905021319 76 158 0.0 0.0 0.00 0.66 0.66 95 1019.3
20260905020814 76 163 0.0 0.0 0.07 0.66 0.66 95 1019.2
20260905020309 76 163 0.0 0.0 0.05 0.65 0.65 95 1019.1
20260905015808 76 165 0.0 0.0 0.12 0.65 0.65 95 1019.2
20260905015306 76 154 0.0 0.0 0.12 0.64 0.64 95 1019.1
20260905014801 76 155 0.0 0.0 0.12 0.63 0.63 95 1019.1
20260905014257 76 152 0.0 0.0 0.07 0.62 0.62 95 1019.0
20260905013747 76 152 0.0 0.0 0.07 0.61 0.61 95 1019.1
20260905013243 76 152 0.0 0.0 0.05 0.60 0.60 95 1018.8
20260905012738 76 152 0.0 0.0 0.12 0.60 0.60 95 1018.8
20260905012233 76 148 0.0 0.0 0.19 0.59 0.59 95 1018.9
20260905011730 75 151 0.0 0.0 0.17 0.58 0.58 95 1018.6
20260905011225 75 161 0.0 0.0 0.12 0.56 0.56 95 1018.6
20260905010720 75 162 0.0 0.0 0.12 0.55 0.55 95 1018.8
20260905010215 75 158 0.0 0.0 0.12 0.54 0.54 95 1018.8
20260905005712 75 149 0.0 0.0 0.12 0.53 0.53 95 1018.8
20260905005207 75 151 0.0 0.0 0.05 0.52 0.52 95 1018.9
20260905004701 75 143 0.0 0.0 0.07 0.51 0.51 95 1018.7
20260905004156 75 143 0.0 0.0 0.07 0.51 0.51 95 1019.1
20260905003652 75 150 0.0 0.0 0.00 0.50 0.50 95 1019.3
20260905003148 75 146 0.0 0.0 0.05 0.50 0.50 95 1019.5
20260905002643 75 152 0.0 0.0 0.12 0.50 0.50 95 1019.5
20260905002143 75 146 0.0 0.0 0.07 0.49 0.49 95 1019.7
20260905001638 75 155 0.0 0.0 0.00 0.48 0.48 95 1019.6
20260905001137 75 153 0.0 0.0 0.00 0.48 0.48 95 1019.7
20260905000633 74 142 0.0 0.0 0.07 0.48 0.48 95 1019.7
20260905000128 74 152 0.0 0.0 0.00 0.47 0.47 95 1019.7
20260904235623 74 147 0.0 0.0 0.05 0.47 0.47 95 1019.7
20260904235122 74 152 0.0 0.0 0.05 0.47 0.47 95 1019.3
20260904234617 75 145 0.0 0.0 0.12 0.46 0.46 95 1019.2
20260904234113 74 157 0.0 0.0 0.12 0.45 0.45 95 1019.0
20260904233608 75 143 0.0 0.0 0.19 0.44 0.44 95 1019.0
20260904233059 75 141 0.0 0.0 0.12 0.42 0.42 95 1018.6
20260904232555 75 165 0.0 0.0 0.05 0.41 0.41 94 1018.4
20260904232051 75 168 0.0 0.0 0.07 0.40 0.40 94 1018.6
20260904231547 75 162 0.0 0.0 0.12 0.40 0.40 94 1018.8
20260904231042 75 158 0.0 0.0 0.12 0.39 0.39 94 1018.7
20260904230541 75 166 1.0 1.0 0.26 0.38 0.38 94 1018.9
20260904230036 76 188 1.0 1.0 0.35 0.36 0.36 93 1019.5
20260904225534 76 139 0.0 0.0 0.66 0.33 0.33 93 1019.9
20260904225033 76 136 0.0 0.0 0.66 0.29 0.29 93 1020.2
20260904224529 77 148 1.0 1.0 0.47 0.22 0.22 92 1019.8
20260904224029 78 185 1.0 1.0 0.42 0.17 0.17 90 1019.5
20260904223528 81 205 5.0 6.0 0.26 0.14 0.14 87 1019.8
20260904223024 82 210 2.0 2.0 0.00 0.10 0.10 85 1019.3
20260904222519 84 218 3.0 5.0 0.00 0.10 0.10 85 1019.0
20260904222014 84 159 0.0 0.0 0.00 0.10 0.10 86 1018.3
20260904221508 84 158 0.0 0.0 0.00 0.10 0.10 85 1018.3
20260904221003 84 158 0.0 0.0 0.00 0.10 0.10 85 1018.0
20260904220503 84 157 0.0 0.0 0.00 0.10 0.10 84 1017.8
20260904215958 84 149 0.0 0.0 0.00 0.10 0.10 83 1017.4
20260904215453 85 151 0.0 0.0 0.00 0.10 0.10 84 1017.5
20260904214948 84 155 1.0 1.0 0.00 0.10 0.10 82 1017.5
20260904214443 85 153 1.0 2.0 0.00 0.10 0.10 82 1017.5
20260904213939 85 138 1.0 1.0 0.00 0.10 0.10 82 1017.6
20260904213432 85 166 1.0 1.0 0.00 0.10 0.10 83 1017.4
20260904212928 85 146 0.0 0.0 0.00 0.10 0.10 84 1017.7
20260904212428 85 150 0.0 0.0 0.00 0.10 0.10 85 1017.5
20260904211923 85 161 1.0 1.0 0.00 0.10 0.10 86 1017.5
20260904211418 85 127 0.0 1.0 0.00 0.10 0.10 87 1017.4
20260904210914 84 129 1.0 2.0 0.00 0.10 0.10 87 1017.3
20260904210412 85 140 1.0 1.0 0.00 0.10 0.10 87 1017.3
20260904205909 84 158 0.0 1.0 0.00 0.10 0.10 89 1017.4
20260904205404 85 153 0.0 0.0 0.00 0.10 0.10 90 1017.3
20260904204901 84 160 0.0 0.0 0.00 0.10 0.10 90 1017.3
20260904204356 84 158 1.0 2.0 0.00 0.10 0.10 90 1017.5
20260904203853 84 173 1.0 1.0 0.00 0.10 0.10 92 1017.5
20260904203349 83 133 1.0 2.0 0.00 0.10 0.10 92 1017.6
20260904202845 83 142 0.0 0.0 0.00 0.10 0.10 93 1017.7
20260904202341 84 145 1.0 1.0 0.00 0.10 0.10 93 1017.7
20260904201836 83 82 3.0 3.0 0.00 0.10 0.10 93 1017.6
20260904201336 83 151 1.0 1.0 0.00 0.10 0.10 93 1017.8
20260904200832 83 153 1.0 2.0 0.05 0.10 0.10 93 1018.2
20260904200330 83 107 0.0 1.0 0.17 0.10 0.10 93 1018.1
20260904195825 84 141 0.0 1.0 0.12 0.08 0.08 93 1018.1
20260904195323 84 143 0.0 0.0 0.07 0.07 0.07 93 1018.1
20260904194818 83 154 1.0 1.0 0.12 0.06 0.06 93 1018.2
20260904194318 84 124 1.0 1.0 0.12 0.06 0.06 93 1018.2
20260904193813 83 152 0.0 0.0 0.00 0.04 0.04 93 1018.2
20260904193309 84 151 0.0 0.0 0.00 0.04 0.04 93 1018.3
20260904192804 83 158 0.0 0.0 0.00 0.04 0.04 93 1018.1
20260904192259 83 144 0.0 0.0 0.00 0.04 0.04 93 1018.1
20260904191756 83 168 0.0 0.0 0.00 0.04 0.04 93 1018.3
20260904191252 83 162 1.0 1.0 0.00 0.04 0.04 92 1018.4
20260904190748 83 164 0.0 0.0 0.00 0.04 0.04 92 1018.5
20260904190244 83 151 0.0 0.0 0.00 0.04 0.04 92 1018.7
20260904185739 83 159 0.0 0.0 0.00 0.04 0.04 92 1018.7
20260904185234 83 167 0.0 0.0 0.00 0.04 0.04 91 1018.7
20260904184733 83 157 0.0 1.0 0.05 0.04 0.04 91 1018.6